TimeSAST,TemperatureF,Dew PointF,Humidity,Sea Level PressureIn,VisibilityMPH,Wind Direction,Wind SpeedMPH,Gust SpeedMPH,PrecipitationIn,Events,Conditions,WindDirDegrees,DateUTC
12:00 AM,48.2,44.6,87,30.06,-9999.0,NNW,3.5,-,N/A,,Clear,330,2013-05-13 22:00:00
1:00 AM,46.4,42.8,87,30.06,-9999.0,WNW,3.5,-,N/A,,Clear,300,2013-05-13 23:00:00
2:00 AM,47,44,83,30.06,19,WNW,5.8,,,,,300,2013-05-14 00:00:00
2:00 AM,46.4,42.8,87,30.04,-9999.0,NW,3.5,-,N/A,,Clear,310,2013-05-14 00:00:00
3:00 AM,48.2,42.8,82,30.01,-9999.0,NW,4.6,-,N/A,,Clear,310,2013-05-14 01:00:00
4:00 AM,46.4,42.8,87,30.01,-9999.0,NNW,4.6,-,N/A,,Clear,330,2013-05-14 02:00:00
5:00 AM,47,42,77,30.00,12,NNW,3.5,,,,,330,2013-05-14 03:00:00
5:00 AM,46.4,42.8,87,29.98,-9999.0,NNW,3.5,-,N/A,,Clear,330,2013-05-14 03:00:00
6:00 AM,48.2,44.6,87,29.98,-9999.0,WNW,3.5,-,N/A,,Clear,290,2013-05-14 04:00:00
7:00 AM,48.2,44.6,87,29.98,6.2,North,2.3,-,N/A,,Scattered Clouds,360,2013-05-14 05:00:00
8:00 AM,49,45,82,29.97,12,NNW,4.6,,,,Clear,330,2013-05-14 06:00:00
8:00 AM,50.0,44.6,82,29.95,-9999.0,NNW,4.6,-,N/A,,Clear,330,2013-05-14 06:00:00
9:00 AM,55.4,48.2,77,29.95,-9999.0,WNW,4.6,-,N/A,,Clear,290,2013-05-14 07:00:00
10:00 AM,62.6,50.0,63,29.95,-9999.0,WNW,4.6,-,N/A,,Clear,290,2013-05-14 08:00:00
11:00 AM,70,53,44,29.97,12,WSW,3.5,,,,Clear,240,2013-05-14 09:00:00
11:00 AM,69.8,53.6,56,29.95,-9999.0,WSW,3.5,-,N/A,,Clear,240,2013-05-14 09:00:00
12:00 PM,66.2,55.4,68,29.95,-9999.0,SSW,6.9,-,N/A,,Clear,210,2013-05-14 10:00:00
1:00 PM,68.0,50.0,52,29.92,-9999.0,SSW,4.6,-,N/A,,Clear,200,2013-05-14 11:00:00
2:00 PM,67,53,51,29.91,19,South,5.8,,,,Clear,190,2013-05-14 12:00:00
2:00 PM,68.0,53.6,60,29.92,-9999.0,South,5.8,-,N/A,,Clear,190,2013-05-14 12:00:00
3:00 PM,62.6,55.4,77,29.92,6.2,SSW,9.2,-,N/A,Fog,Partly Cloudy,200,2013-05-14 13:00:00
4:00 PM,62.6,57.2,82,29.92,6.2,South,4.6,-,N/A,,Partly Cloudy,170,2013-05-14 14:00:00
5:00 PM,63,57,76,29.92,12,NE,3.5,,,,Clear,50,2013-05-14 15:00:00
5:00 PM,62.6,57.2,82,29.92,-9999.0,NE,2.3,-,N/A,,Clear,50,2013-05-14 15:00:00
6:00 PM,60.8,55.4,82,29.92,-9999.0,NE,3.5,-,N/A,,Clear,40,2013-05-14 16:00:00
7:00 PM,57.2,53.6,88,29.92,3.7,SSW,5.8,-,N/A,,Clear,200,2013-05-14 17:00:00
8:00 PM,55,54,93,29.94,0,NW,3.5,,,Fog,Partial Fog,320,2013-05-14 18:00:00
8:00 PM,55.4,53.6,94,29.92,0.1,NW,2.3,-,N/A,Fog,Fog,320,2013-05-14 18:00:00
11:00 PM,51.8,46.4,82,29.95,-9999.0,West,5.8,-,N/A,,Clear,280,2013-05-14 21:00:00